Regional Weather Roundup
Issued by NWS

Home | Current Version | Previous Version | Text Only | Print | Product List | Glossary Off
Versions: 1 2 3 4 5 6 7 8 9 10 11 12 13 14 15 16 17 18 19 20 21 22 23 24 25 26 27 28 29 30 31 32 33 34 35 36 37 38 39 40 41 42 43 44 45 46 47 48 49 50

000
ASUS43 KIND 292159
RWRIN

WEATHER ROUNDUP FOR INDIANA
NATIONAL WEATHER SERVICE INDIANAPOLIS IN
600 PM EDT WED JUL 29 2015

NOTE: "FAIR" INDICATES FEW OR NO CLOUDS BELOW 12,000 FEET WITH NO
SIGNIFICANT WEATHER AND/OR OBSTRUCTIONS TO VISIBILITY.

* - STATION DOES NOT REPORT WEATHER SUCH AS PRECIPITATION OR FOG.

+ - STATION NOT QUALITY CONTROLLED BY THE NATIONAL WEATHER SERVICE.
    USE DATA WITH CAUTION...ESPECIALLY DEWPOINT AND RELATIVE
    HUMIDITY OBSERVATIONS.

INZ001>003-010>013-019-020-292300-
NORTHWEST INDIANA

CITY           SKY/WX    TMP DP  RH WIND       PRES   REMARKS
GARY /AIRPORT/ MOSUNNY   88  59  37 NE6       29.96S
RENSSELAER +   SUNNY     84  63  48 W10       29.98R

$$

LMZ046-743>745-292300-
SOUTHERN LAKE MICHIGAN

STATION/POSITION TIME  TEMP    WIND        PRES    WAVE
                       AIR SEA DIR/SP/G            HT
                 (UTC) (F)     (DEG/KT/KT) (MB)    (FT)
BURNS HARBOR     2100   82      40/  4/  4 1014.9F
MICHIGAN CITY    2100   80        CALM       N/A
5NW MICH CITY    2100   79 77   CALM  /  2   N/A     1

$$

INZ004-005-014>016-021>024-292300-
NORTH CENTRAL INDIANA

CITY           SKY/WX    TMP DP  RH WIND       PRES   REMARKS
GOSHEN         SUNNY     83  65  54 NW13      29.95R
SOUTH BEND     SUNNY     85  60  42 NW12      29.97R

$$

INZ006>009-017-018-025>027-292300-
NORTHEAST INDIANA

CITY           SKY/WX    TMP DP  RH WIND       PRES   REMARKS
ANGOLA *+      PTSUNNY   84  81  89 NW9       29.94S HX  98
FORT WAYNE     PTSUNNY   87  75  67 W9G18     29.94R HX  96

$$

INZ028-029-035-036-043>045-051>053-292300-
WEST CENTRAL INDIANA

CITY           SKY/WX    TMP DP  RH WIND       PRES   REMARKS
CRAWFORDSVL +  MOSUNNY   83  72  69 NW8         N/A
GREENCASTLE +  CLOUDY    84  70  61 NW6       29.98S
LAFAYETTE      MOSUNNY   86  73  65 NW12      29.96R
TERRE HAUTE    CLOUDY    85  75  72 NW8       29.97F

$$

INZ030>032-037>040-046>048-054>057-064-065-292300-
CENTRAL INDIANA

CITY           SKY/WX    TMP DP  RH WIND       PRES   REMARKS
GREENWOOD *+   CLOUDY    84  72  65 NW10      29.96F
INDIANAPOLIS   CLOUDY    85  75  72 NW7       29.95F
-EAGLE CREEK   PTSUNNY   86  75  69 NW12      29.95F HX  95
KOKOMO *+      PTSUNNY   88  73  62 NW13      29.95R HX  96
MT COMFORT *+  PTSUNNY   84  75  74 NW8       29.97S
SHELBYVILLE    PTSUNNY   87  75  67 W8        29.94F HX  96

$$

INZ033-034-041-042-049-050-058-059-292300-
EAST CENTRAL INDIANA

CITY           SKY/WX    TMP DP  RH WIND       PRES   REMARKS
MUNCIE         PTSUNNY   85  75  72 W12       29.96R

$$

INZ060-061-067>069-081>083-085>088-292300-
SOUTHWEST INDIANA

CITY           SKY/WX    TMP DP  RH WIND       PRES   REMARKS
EVANSVILLE     PTSUNNY   87  73  62 NW10      29.94F
HUNTINGBURG *+ MOSUNNY   90  79  70 NW16G23   29.94S THUNDER HX 105

$$

INZ062-063-066-070>080-084-089>092-292300-
SOUTH CENTRAL AND SOUTHEAST INDIANA

CITY           SKY/WX    TMP DP  RH WIND       PRES   REMARKS
BLOOMINGTON    CLOUDY    84  78  82 N3        29.96F HX  95
MADISON *+     CLOUDY    81  72  74 NW10G30   29.98R VSB 3/4
SEYMOUR +      CLOUDY    77  73  88 CALM      29.95S

$$



USA.gov is the U.S. government's official web portal to all federal, state and local government web resources and services.